Location: Seattle
(47.6064°N, 122.3308°W)
Time: 02:45:07
(UTC-08:00)

SR - Pass Details

Date: 04 December 2020
Orbit: 575 x 880 km, 66.7° (Epoch: 19 January)

Event Time Altitude Azimuth Distance (km) Brightness Sun altitude
Rises 17:22:31 0° 214° (SW) 2,813 ? -10.4°
Reaches altitude 10° 17:24:41 10° 215° (SW) 1,941 ? -10.7°
Maximum altitude 17:29:02 86° 302° (WNW) 639 ? -11.4°
Enters shadow 17:33:35 11° 34° (NNE) 2,026 ? -12.1°
